Content
SEND FEEDBACK

Daily
Averages
Monthly
Summary
United States of America

DES MOINES, IOWA


Home > North America > United States > Iowa
Elevation: 938 feet     Latitude: 41 32N     Longitude: 093 39W

WEATHER
 
SELECT A DAY
Number of Records: 205,577;   Date Range: 1/1/95 - 11/27/14
 
SHARE

PRINT THIS DATA

[ ← Previous Day ]
WEATHER ALMANAC - FEBRUARY 13, 2013
[ Next Day → ]
[ °C ]   °F
Weather ElementAverageHighLow
Temperature38.8 °F51.1 °F (2:54 pm)26.1 °F (5:54 am)
Dewpoint25.6 °F28 °F (12:54 pm)21 °F (5:54 am)
Humidity61 %81 % (4:54 am)39 % (2:54 pm)
Barometer29.79 in29.89 in (1:54 am)29.71 in (8:54 pm)
Wind Speed9.6 mph16.1 mph (3:54 pm)
Weather ElementAverage
Visibility10 mi
Wind DirectionW (265.7 °)

Weather ElementTotal
Precipitation---
Heating Degree Days26.4 (Base 65)
Averaged from 23 records on February 13, 2013
WEATHER CONDITIONS BREAKOUT
WIND DIRECTION BREAKOUT
WEATHER BY HOUR - FEBRUARY 13, 2013
[ °C ]   °F
Local TimeTemperatureDewpointHumidityBarometerVisibilityWind DirectionWind SpeedGust SpeedPrecipitationEventsConditions
1:54 AM28.0 °F21.9 °F78 %29.89 in10.0 miWNW (300°)5.8 mphClear
2:54 AM28.9 °F23.0 °F78 %29.87 in10.0 miWNW (300°)4.6 mphClear
3:54 AM28.0 °F21.9 °F78 %29.86 in10.0 miWNW (290°)6.9 mphClear
4:54 AM27.0 °F21.9 °F81 %29.85 in10.0 miWNW (290°)9.2 mphClear
5:54 AM26.1 °F21.0 °F81 %29.85 in10.0 miWNW (300°)8.1 mphClear
6:54 AM27.0 °F21.9 °F81 %29.84 in10.0 miWNW (290°)6.9 mphClear
7:54 AM28.4 °F21.2 °F74 %29.82 in10.0 miWNW (290°)9.2 mphPartly Cloudy
8:54 AM32.0 °F25.0 °F75 %29.85 in10.0 miNW (310°)10.4 mphScattered Clouds
9:54 AM37.0 °F26.1 °F65 %29.85 in10.0 miWNW (300°)11.5 mphMostly Cloudy
10:54 AM41.0 °F27.0 °F57 %29.84 in10.0 miWest (280°)9.2 mphMostly Cloudy
11:54 AM44.1 °F27.0 °F51 %29.83 in10.0 miWSW (250°)8.1 mphScattered Clouds
12:54 PM46.9 °F28.0 °F48 %29.80 in10.0 miWNW (290°)8.1 mphPartly Cloudy
1:54 PM48.9 °F28.0 °F44 %29.78 in10.0 miWSW (250°)15.0 mphPartly Cloudy
2:54 PM51.1 °F27.0 °F39 %29.76 in10.0 miWest (260°)15.0 mphPartly Cloudy
3:54 PM51.1 °F27.0 °F39 %29.75 in10.0 miWSW (240°)16.1 mphPartly Cloudy
4:54 PM48.9 °F27.0 °F43 %29.74 in10.0 miSW (230°)12.7 mphMostly Cloudy
5:54 PM45.0 °F28.0 °F52 %29.75 in10.0 miSW (230°)8.1 mphMostly Cloudy
6:54 PM45.0 °F27.0 °F49 %29.74 in10.0 miSSW (200°)9.2 mphOvercast
7:54 PM45.0 °F28.0 °F52 %29.73 in10.0 miSSW (200°)10.4 mphOvercast
8:54 PM44.1 °F28.0 °F53 %29.71 in10.0 miSSW (210°)11.5 mphMostly Cloudy
9:54 PM41.0 °F28.0 °F60 %29.71 in10.0 miWSW (250°)10.4 mphPartly Cloudy
10:54 PM41.0 °F28.0 °F60 %29.72 in10.0 miWest (270°)11.5 mphScattered Clouds
11:54 PM37.9 °F27.0 °F65 %29.73 in10.0 miWest (280°)3.5 mphClear
Hourly data recorded from KDSM, located miles away from Des Moines, Iowa







STORIES FROM OUR PARTNERS